1998-067XC

Last updated on Wed Feb 05 2025 00:02:08 GMT+0000 (Coordinated Universal Time)

1 62296U 98067XC 25035.56328257 .00160596 00000+0 15972-2 0 9990 2 62296 51.6319 241.0240 0013396 190.0973 169.9755 15.64578336 8914
UTC large
Height (km)
Speed (km/s)
/
Latitude / Longitude
Inclination (degrees)
Orbital Period (minutes)
Azimuth
Elevation
Range (km)
Doppler Factor

Next 0 passes for location: London (51.5072 / 0.1276)

Sorry there are no passes over London.